Location: *
(48.8780°N, 19.2358°E)
Time: 01:57:55
(UTC+00:00)

STARLINK-39 - Pass Details

Date: 18 October 2019
Orbit: 548 x 551 km, 53.0° (Epoch: 14 November)

Event Time Altitude Azimuth Distance (km) Brightness Sun altitude
Rises 16:36:51 0° 254° (WSW) 2,712 9.2 -8.7°
Reaches altitude 10° 16:39:06 10° 257° (WSW) 1,820 7.9 -9.1°
Maximum altitude 16:43:13 68° 341° (NNW) 597 3.8 -9.7°
Enters shadow 16:46:58 12° 64° (ENE) 1,673 5.5 -10.3°
